AI4ZL Weather Reports


Display with metric or nautical units.
time (UTC)temp
F
wind
direction
speed
MPH
gust
MPH
rain 1hr
in
rain 24hr
in
rain mn
in
humidity
%
barometer
mb
20260505011045 73 232 3.0 6.0 0.00 0.00 0.00 50 1008.4
20260505010049 74 198 4.0 8.0 0.00 0.00 0.00 49 1008.2
20260505005017 74 197 3.0 6.0 0.00 0.00 0.00 49 1008.0
20260505004043 75 190 3.0 4.0 0.00 0.00 0.00 48 1008.3
20260505003027 75 204 3.0 8.0 0.00 0.00 0.00 47 1008.3
20260505002033 76 201 5.0 11.0 0.00 0.00 0.00 46 1008.4
20260505001020 76 201 4.0 9.0 0.00 0.00 0.00 46 1008.5
20260505000025 77 221 5.0 10.0 0.00 0.00 0.00 45 1008.4
20260504235050 77 203 5.0 15.0 0.00 0.00 0.00 45 1008.4
20260504234018 77 201 5.0 14.0 0.00 0.00 0.00 45 1008.6
20260504233023 77 204 5.0 15.0 0.00 0.00 0.00 45 1008.8
20260504232028 77 221 7.0 19.0 0.00 0.00 0.00 45 1008.9
20260504231016 78 214 5.0 11.0 0.00 0.00 0.00 44 1009.0
20260504230021 79 212 5.0 11.0 0.00 0.00 0.00 43 1009.1
20260504225026 79 205 5.0 14.0 0.00 0.00 0.00 43 1009.0
20260504224030 80 199 4.0 8.0 0.00 0.00 0.00 43 1009.2
20260504223018 81 212 5.0 10.0 0.00 0.00 0.00 41 1009.2
20260504222024 80 239 7.0 17.0 0.00 0.00 0.00 40 1009.3
20260504221029 80 195 5.0 10.0 0.00 0.00 0.00 41 1009.3
20260504220017 80 220 4.0 9.0 0.00 0.00 0.00 42 1009.4
20260504215021 80 200 5.0 13.0 0.00 0.00 0.00 41 1009.6
20260504214027 81 241 5.0 15.0 0.00 0.00 0.00 42 1009.3
20260504213032 81 225 4.0 11.0 0.00 0.00 0.00 42 1009.4
20260504212041 81 201 4.0 11.0 0.00 0.00 0.00 42 1009.6
20260504211024 81 204 5.0 11.0 0.00 0.00 0.00 41 1009.6
20260504210029 80 211 6.0 16.0 0.00 0.00 0.00 41 1009.5
20260504205018 81 233 5.0 13.0 0.00 0.00 0.00 40 1009.4
20260504204023 80 210 7.0 16.0 0.00 0.00 0.00 41 1009.4
20260504203028 81 214 6.0 15.0 0.00 0.00 0.00 40 1009.2
20260504202033 81 215 5.0 11.0 0.00 0.00 0.00 42 1009.4
20260504201020 80 228 6.0 10.0 0.00 0.00 0.00 40 1009.4
20260504200026 80 226 7.0 15.0 0.00 0.00 0.00 42 1009.5
20260504195031 80 235 7.0 19.0 0.00 0.00 0.00 42 1009.6
20260504194018 80 204 7.0 18.0 0.00 0.00 0.00 41 1009.8
20260504193023 81 210 6.0 15.0 0.00 0.00 0.00 42 1009.8
20260504192049 80 201 6.0 14.0 0.00 0.00 0.00 43 1009.8
20260504191033 81 208 6.0 16.0 0.00 0.00 0.00 43 1010.0
20260504185026 81 242 7.0 18.0 0.00 0.00 0.00 41 1010.4
20260504184031 81 238 9.0 23.0 0.00 0.00 0.00 41 1010.5
20260504183020 80 202 6.0 11.0 0.00 0.00 0.00 43 1010.5
20260504182024 80 209 5.0 11.0 0.00 0.00 0.00 43 1010.7
20260504181029 80 231 5.0 15.0 0.00 0.00 0.00 44 1010.9
20260504180017 80 235 7.0 17.0 0.00 0.00 0.00 44 1011.0
20260504175022 79 232 7.0 14.0 0.00 0.00 0.00 46 1011.3
20260504174026 79 221 5.0 14.0 0.00 0.00 0.00 48 1011.5
20260504173053 79 229 9.0 19.0 0.00 0.00 0.00 47 1011.5
20260504172020 78 226 5.0 11.0 0.00 0.00 0.00 48 1011.6
20260504171025 78 229 7.0 15.0 0.00 0.00 0.00 49 1011.4
20260504151016 73 230 4.0 8.0 0.00 0.00 0.00 62 1012.4
20260504141029 69 195 4.0 8.0 0.00 0.00 0.00 67 1012.9
20260504081021 59 189 3.0 3.0 0.00 0.00 0.00 69 1012.2
20260504045018 60 201 2.0 4.0 0.00 0.00 0.00 60 1013.9
20260504044044 60 196 2.0 4.0 0.00 0.00 0.00 60 1013.9
20260504043029 60 188 2.0 4.0 0.00 0.00 0.00 59 1014.0
20260504042016 60 200 2.0 4.0 0.00 0.00 0.00 59 1014.2
20260504041021 60 196 1.0 3.0 0.00 0.00 0.00 59 1014.2
20260504040026 60 211 1.0 4.0 0.00 0.00 0.00 60 1014.4
20260504035031 59 195 1.0 3.0 0.00 0.00 0.00 60 1014.4
20260504034018 59 207 0.0 3.0 0.00 0.00 0.00 60 1014.4
20260504033024 59 284 0.0 1.0 0.00 0.00 0.00 60 1014.6
20260504032029 59 350 0.0 1.0 0.00 0.00 0.00 60 1014.6
20260504031017 60 0.0 1.0 0.00 0.00 0.00 59 1014.6
20260504030021 60 62 0.0 1.0 0.00 0.00 0.00 59 1014.6
20260504025027 61 132 0.0 1.0 0.00 0.00 0.00 57 1014.5
20260504024031 61 198 0.0 3.0 0.00 0.00 0.00 57 1014.6
20260504023040 62 198 0.0 2.0 0.00 0.00 0.00 55 1014.5
20260504022044 63 204 0.0 2.0 0.00 0.00 0.00 54 1014.5
20260504021050 63 208 1.0 3.0 0.00 0.00 0.00 53 1014.4
20260504020037 64 206 2.0 4.0 0.00 0.00 0.00 52 1014.2
20260504015023 64 206 2.0 4.0 0.00 0.00 0.00 52 1014.2
20260504014027 64 207 2.0 3.0 0.00 0.00 0.00 52 1014.2
20260504013033 64 213 2.0 4.0 0.00 0.00 0.00 51 1014.1
20260504012021 64 221 2.0 7.0 0.00 0.00 0.00 50 1014.0